This demonstration page uses our WeatherBlox Daily Observations layout. Learn more.

Left ArrowRight Arrow

Hourly Observations for August 31, 2020

Temp ( °F °C ) Dew Point ( °F °C ) Humidity (%) Winds ( mph kmh ) Pressure ( in mb ) Visibility ( mi km ) Precip ( " mm )
12:54 am 00:54 Clear 72 22.2 65 18.3 79 79 S 14 22 29.63 1003 10 16.0934 0 0
1:54 am 01:54 Clear 72 22.2 66 18.9 82 82 SSW 5 7 29.67 1005 9 14.48406 0 0
2:54 am 02:54 Clear 70 21.1 66 18.9 87 87 SE 6 9 29.67 1005 9 14.48406 0 0
3:24 am 03:24 Mostly Cloudy with Nearby Thunderstorms 72 22.2 66 18.9 82 82 NW 16 26 29.71 1006 9 14.48406 0 0
3:34 am 03:34 Cloudy with Nearby Thunderstorms 73 22.8 66 18.9 79 79 NW 14 22 29.72 1006 9 14.48406 0 0
3:54 am 03:54 Cloudy with Nearby Thunderstorms 70 21.1 65 18.3 84 84 NW 25 41 29.75 1007 8 12.87472 0.001 0.001
4:04 am 04:04 Cloudy with Nearby Thunderstorms 67 19.4 63 17.2 87 87 N 17 28 29.74 1007 8 12.87472 0.01 0.254
4:11 am 04:11 Windy with Storms Likely 66 18.9 62 16.7 87 87 N 26 43 29.73 1007 8 12.87472 0.02 0.508
4:20 am 04:20 Windy with Storms Likely 65 18.3 60 15.6 84 84 NNW 25 41 29.75 1008 9 14.48406 0.02 0.508
4:24 am 04:24 Cloudy with Nearby Thunderstorms 65 18.3 60 15.6 84 84 NNW 21 33 29.76 1008 10 16.0934 0.02 0.508
4:42 am 04:42 Mostly Cloudy with Nearby Thunderstorms 64 17.8 59 15 84 84 N 16 26 29.77 1008 10 16.0934 0.02 0.508
4:54 am 04:54 Mostly Cloudy with Heavy Rain 64 17.8 59 15 84 84 N 21 33 29.76 1008 7 11.26538 0.02 0.508
5:02 am 05:02 Mostly Cloudy with Light Rain 64 17.8 60 15.6 87 87 NNW 18 30 29.78 1008 8 12.87472 0.03 0.762
5:54 am 05:54 Cloudy 64 17.8 58 14.4 81 81 N 18 30 29.79 1009 10 16.0934 0.03 0.762
6:54 am 06:54 Cloudy 63 17.2 55 12.8 76 76 N 14 22 29.81 1010 10 16.0934 0 0
7:54 am 07:54 Cloudy 63 17.2 52 11.1 68 68 N 9 15 29.81 1010 10 16.0934 0 0
8:54 am 08:54 Mostly Cloudy 63 17.2 50 10 63 63 N 21 33 29.83 1010 10 16.0934 0 0
9:54 am 09:54 Sunny 65 18.3 49 9.4 56 56 N 20 31 29.86 1011 10 16.0934 0 0
10:54 am 10:54 Sunny 68 20 49 9.4 51 51 N 17 28 29.88 1012 10 16.0934 0 0
11:54 am 11:54 Sunny 71 21.7 48 8.9 44 44 NNE 10 17 29.88 1012 10 16.0934 0 0
12:54 pm 12:54 Sunny 73 22.8 47 8.3 40 40 NNE 13 20 29.88 1012 10 16.0934 0 0
1:54 pm 13:54 Sunny 75 23.9 46 7.8 36 36 NE 15 24 29.88 1012 10 16.0934 0 0
2:54 pm 14:54 Sunny 77 25 45 7.2 32 32 N 15 24 29.87 1012 10 16.0934 0 0
3:54 pm 15:54 Sunny 78 25.6 44 6.7 30 30 NE 13 20 29.87 1011 10 16.0934 0 0
4:54 pm 16:54 Sunny 78 25.6 43 6.1 29 29 ENE 10 17 29.85 1011 10 16.0934 0 0
5:54 pm 17:54 Sunny 78 25.6 43 6.1 29 29 NE 10 17 29.85 1011 10 16.0934 0 0
6:54 pm 18:54 Sunny 75 23.9 44 6.7 33 33 NE 9 15 29.84 1011 10 16.0934 0 0
7:54 pm 19:54 Sunny 67 19.4 47 8.3 49 49 NE 6 9 29.84 1011 10 16.0934 0 0
8:54 pm 20:54 Clear 60 15.6 49 9.4 67 67 NNE 8 13 29.86 1011 10 16.0934 0 0
9:54 pm 21:54 Clear 62 16.7 48 8.9 60 60 ENE 8 13 29.88 1012 10 16.0934 0 0
10:54 pm 22:54 Clear 62 16.7 49 9.4 62 62 N 9 15 29.9 1012 10 16.0934 0 0
11:54 pm 23:54 Mostly Cloudy 58 14.4 49 9.4 72 72 N 5 7 29.92 1013 10 16.0934 0 0

Powered by AerisWeather